Temp
14 15 15 16 17 17 17 18 18 18 18 18 18 19 19 19 18 17 16 16 16 16 16 15 16 15 15 16 15 15 15 15 15
12 13 15 15 16 17 17 17 17 17 18 18 18 18 18 18 17 17 16 16 16 16 16 16 15 15 15 15 15 15 15 15 15
12 12 13 14 15 16 16 17 17 17 17 18 18 19 18 18 18 17 17 16 16 16 16 15 15 15 15 15 15 15 14 14 15
10 11 12 12 14 15 16 16 16 17 17 17 18 19 18 18 18 17 17 16 16 16 16 15 15 15 14 14 14 14 14 14 14
10 12 11 11 12 14 15 16 16 16 17 17 18 19 19 19 18 18 17 16 16 15 15 15 15 14 14 14 14 14 14 13 14
10 10 10 11 11 13 15 16 16 17 17 17 18 19 19 19 18 17 17 16 16 15 15 15 15 14 14 14 14 13 13 13 13
9 10 10 11 11 12 13 14 15 16 17 17 17 18 19 19 18 17 17 16 16 16 15 15 15 15 14 14 14 13 13 13 13
9 9 10 11 11 12 12 13 14 15 15 16 17 17 18 19 18 17 16 16 16 15 15 15 15 14 13 13 13 13 12 12 12
8 8 9 9 10 11 11 12 13 13 14 16 16 17 18 17 18 17 16 16 16 15 15 15 14 14 13 13 13 12 12 12 12
8 8 8 9 9 10 11 12 13 13 14 14 15 16 17 17 16 17 16 15 15 15 14 14 15 14 14 13 13 12 12 12 12
7 7 8 8 8 9 10 11 12 13 13 13 13 14 15 16 15 16 16 16 15 15 15 15 15 14 14 14 13 12 12 11 11
7 7 8 7 8 8 9 10 11 12 12 13 12 13 14 15 15 14 15 16 15 15 15 15 15 15 14 14 14 14 13 12 12
6 6 7 7 7 8 8 9 10 10 12 12 12 12 13 13 14 14 14 14 14 15 15 15 15 14 14 14 13 13 13 13 13
5 6 6 6 7 7 7 8 9 9 11 12 12 12 12 12 13 13 14 14 14 14 13 14 14 14 15 14 13 13 13 12 12
6 5 6 6 6 7 7 7 7 8 11 12 11 11 11 12 12 13 13 13 13 13 14 14 14 14 14 14 14 14 13 13 13
6 6 5 5 5 5 6 6 6 8 11 11 11 11 11 11 11 11 12 12 13 13 13 13 13 12 12 13 13 13 13 13 13
6 5 5 5 5 5 5 5 6 6 8 9 9 11 11 10 11 10 10 10 11 11 12 12 12 12 12 12 12 12 12 11 12
5 5 5 5 5 4 4 5 5 6 6 7 7 9 9 8 10 10 10 10 10 10 10 11 11 11 10 10 11 11 12 12 11
4 4 4 4 4 4 4 4 4 5 5 6 5 6 6 7 9 10 10 10 10 10 10 10 10 10 10 10 9 9 9 10 11
5 4 4 4 4 3 3 4 3 3 4 4 5 5 6 6 6 7 7 9 9 8 9 9 8 8 8 8 8 9 9 9 10
Height
849 848 847 847 848 848 848 849 849 849 849 850 849 848 849 850 848 849 850 850 850 850 850 850 850 850 850 850 850 849 850 849 849
850 850 849 849 849 849 849 850 850 850 851 851 851 851 851 852 850 851 852 853 853 853 853 853 853 853 853 853 853 853 853 852 852
852 851 851 850 849 849 850 850 852 852 852 852 852 852 853 853 852 853 854 855 856 855 856 856 857 856 856 856 856 857 856 856 855
854 852 851 851 850 849 850 851 851 853 853 853 854 854 854 855 854 855 856 856 858 858 859 858 859 859 859 859 859 859 859 859 858
856 853 853 852 851 850 849 850 851 852 853 854 855 855 856 856 856 857 859 859 859 860 861 861 861 861 861 861 861 861 861 860 861
857 856 855 853 854 851 849 849 851 852 853 854 855 856 856 858 857 858 860 861 861 861 863 864 863 863 863 863 863 863 864 863 863
859 858 856 855 853 853 851 850 850 851 852 853 855 856 858 859 858 860 861 862 863 863 864 865 866 866 866 866 866 865 865 865 865
859 858 856 855 854 853 852 852 851 851 850 852 854 855 857 859 858 860 862 863 864 865 866 866 866 867 868 868 868 868 867 867 867
860 859 857 856 856 855 854 854 853 853 852 852 853 854 856 858 859 860 862 863 864 865 867 867 867 867 868 869 869 869 869 869 869
861 860 859 857 857 856 855 855 855 855 854 852 852 853 855 857 859 860 862 865 865 866 866 868 869 868 868 869 869 870 869 870 869
862 862 860 859 859 858 857 856 856 855 855 854 852 853 855 856 858 861 861 865 866 868 868 868 869 870 870 870 870 870 870 870 870
865 863 862 861 860 859 859 857 857 856 856 856 855 853 855 856 857 859 862 865 866 868 869 870 870 871 871 872 872 871 870 870 870
866 864 864 863 861 860 859 858 858 857 857 857 857 855 855 857 858 860 861 865 866 868 870 871 871 871 872 872 872 871 871 871 870
868 866 866 865 862 860 860 861 859 858 858 859 859 857 858 858 859 862 863 864 866 869 870 872 873 873 873 873 873 872 871 871 871
868 867 867 865 864 862 861 861 860 859 861 860 861 861 861 862 862 863 864 866 867 869 869 873 872 873 873 871 871 871 872 870 870
868 868 868 865 864 865 863 862 863 860 860 862 864 864 866 866 865 866 866 866 867 869 871 872 871 874 873 872 872 872 870 870 869
872 870 869 869 868 868 866 865 864 866 861 865 867 866 870 871 871 870 869 869 868 868 871 870 872 875 873 873 872 870 869 868 869
872 872 870 870 870 870 869 867 866 866 869 868 870 869 873 875 872 875 871 873 871 872 874 873 873 872 872 872 871 870 869 868 867
875 874 873 872 873 871 871 870 869 871 871 871 871 875 876 876 876 874 874 875 876 875 875 874 875 876 874 875 873 871 870 867 866
875 876 875 874 873 873 873 874 874 873 871 872 874 875 876 877 878 877 878 878 879 879 877 877 876 876 876 876 874 871 870 868 866
Wind_Speed
21 17 14 11 12 12 9 9 10 11 13 16 17 18 20 16 14 16 16 14 16 16 16 17 17 17 17 18 17 18 19 19 19
19 20 14 11 8 8 11 8 8 9 11 14 16 15 16 15 18 16 14 15 15 15 16 16 17 17 17 17 18 19 18 18 18
17 19 19 16 11 6 6 8 6 7 9 12 15 14 18 13 10 16 17 14 12 16 16 14 16 16 17 17 17 17 18 17 17
16 16 19 19 14 7 4 3 5 5 6 9 12 14 15 14 15 15 14 13 15 15 14 17 16 16 18 17 17 17 18 17 16
15 16 17 19 19 11 4 3 4 4 4 6 8 10 11 11 9 13 13 13 13 14 13 13 14 16 15 17 15 15 14 17 16
15 16 15 17 17 18 10 4 3 5 3 4 5 9 12 9 9 12 11 11 10 14 12 13 13 15 14 16 13 14 13 14 14
15 12 12 13 14 17 19 11 7 5 6 4 5 5 5 6 6 9 11 10 11 10 11 12 11 12 13 12 12 13 14 13 13
17 17 15 13 13 13 17 19 16 8 3 5 6 4 6 4 4 6 10 8 10 10 10 10 12 11 11 11 11 12 13 12 13
17 18 17 15 13 12 14 15 19 18 10 2 5 6 6 8 5 7 9 8 8 9 9 9 11 10 12 11 11 11 11 12 12
17 16 16 16 15 14 13 13 15 18 19 13 1 5 5 6 9 8 8 9 8 9 10 7 8 8 8 10 9 9 9 10 10
15 15 15 17 17 14 13 12 13 10 15 18 14 2 7 7 11 8 8 8 7 8 9 7 8 7 8 10 10 9 8 8 9
13 14 15 17 17 14 14 13 8 11 13 16 18 10 3 6 8 10 11 9 8 8 10 8 6 7 7 7 9 10 10 8 7
12 13 15 15 15 15 14 15 16 11 11 14 15 12 9 5 6 8 11 9 10 8 7 7 8 8 8 6 6 7 6 7 9
11 12 13 14 15 16 16 16 16 14 14 13 13 14 13 10 5 6 9 11 10 11 10 7 7 8 9 9 9 11 9 8 5
10 12 12 15 16 18 15 17 17 16 14 14 16 16 17 16 12 7 7 9 11 12 12 10 9 6 4 3 5 9 9 8 11
10 12 13 14 17 18 18 15 17 24 12 12 16 27 23 20 20 17 12 9 10 10 8 6 7 4 3 3 3 5 6 7 8
10 12 13 13 14 17 19 19 18 19 21 6 2 1 8 20 22 21 22 20 15 10 4 3 1 4 5 7 7 8 8 10 11
11 11 12 13 14 16 17 19 17 13 18 19 6 3 2 3 8 15 17 18 19 16 15 13 12 10 12 11 9 10 11 14 15
10 11 12 13 13 15 16 16 17 13 12 9 17 14 9 3 1 5 13 14 15 15 14 13 12 12 12 12 14 16 18 16 14
9 10 11 12 13 15 15 15 17 17 18 14 7 10 10 12 8 2 11 8 11 14 11 13 14 15 15 17 18 17 16 16 18
Wind_Direction
39 35 46 64 60 63 71 63 65 64 59 56 59 66 65 61 70 58 66 69 70 67 71 76 74 71 71 75 74 73 69 69 69
37 39 39 46 60 62 62 72 65 61 57 54 57 72 69 61 74 71 76 70 69 74 74 65 71 69 75 74 71 68 69 68 67
35 38 43 46 46 52 66 82 74 56 51 51 56 67 62 67 63 74 79 71 72 81 67 72 69 70 71 67 69 66 66 63 66
33 39 38 38 43 40 74 83 109 69 44 51 59 78 73 62 92 73 71 83 78 71 63 76 69 72 67 70 69 61 63 54 61
28 40 36 42 39 45 69 88 123 119 63 46 61 71 72 64 92 81 71 71 83 67 70 72 71 71 72 70 64 63 67 56 60
32 31 32 43 38 43 48 91 134 170 131 64 57 71 65 70 84 79 80 67 68 79 74 64 66 74 72 68 64 60 60 58 58
38 37 35 40 49 48 49 56 72 154 165 138 103 61 58 82 71 81 91 81 76 65 73 75 77 65 65 57 60 62 60 58 58
36 37 40 36 42 52 47 46 48 48 115 155 159 86 110 87 110 83 111 97 85 71 81 82 81 62 58 60 56 52 57 54 52
35 36 35 35 33 43 45 40 43 40 33 182 169 134 137 73 119 105 124 113 82 92 83 80 84 87 72 63 61 55 56 52 47
30 34 30 36 35 36 35 34 44 32 30 32 163 194 161 126 130 122 129 122 97 96 94 97 72 74 65 72 61 62 52 51 49
31 25 28 37 34 37 37 27 30 36 36 28 28 42 192 143 104 139 136 135 110 101 74 102 83 66 53 53 55 51 57 48 43
29 26 30 35 30 35 49 39 31 48 37 40 20 38 151 170 129 116 143 150 124 116 89 69 83 78 52 44 43 41 42 44 37
35 31 34 35 33 35 50 44 37 37 50 40 20 44 60 155 119 96 117 148 136 120 105 94 74 70 56 44 19 10 22 29 15
45 39 42 39 38 42 49 52 40 32 67 49 44 60 62 69 117 100 102 109 121 121 94 77 75 72 56 48 41 34 11 347 353
52 46 48 47 41 40 53 54 45 49 77 72 68 74 75 77 81 98 104 112 110 105 101 96 86 79 74 81 54 21 16 4 358
54 53 50 54 45 42 49 61 47 52 87 104 88 78 72 74 75 80 86 100 116 119 129 125 100 97 103 78 14 343 352 355 354
65 62 58 59 58 52 51 57 63 52 53 71 51 98 74 63 66 66 63 61 62 76 81 135 291 339 354 345 333 316 319 336 331
69 68 67 65 63 61 55 54 62 66 65 62 65 41 62 332 56 57 60 52 52 58 53 53 49 44 40 24 6 347 322 308 321
71 71 74 74 71 70 67 66 62 70 77 81 72 74 68 37 74 56 47 41 41 48 46 49 48 44 35 23 19 20 18 10 337
78 72 71 74 74 74 74 79 76 70 71 79 65 64 53 50 34 1 1 12 32 45 56 55 53 44 33 17 14 10 357 1 6